Regional Weather Roundup
Issued by NWS Albany, NY

Home | Current Version | Previous Version | Text Only | Print | Product List | Glossary On
Versions: 1 2 3 4 5 6 7 8 9 10 11 12 13 14 15 16 17 18 19 20 21 22 23 24 25 26 27 28 29 30 31 32 33 34 35 36 37 38 39 40 41 42 43 44 45 46
000
ASUS41 KALY 251010
RWRALY

NEW YORK STATE HOURLY WEATHER ROUNDUP
NATIONAL WEATHER SERVICE ALBANY NY
500 AM EST THU DEC 25 2014

NOTE: "FAIR" INDICATES FEW OR NO CLOUDS BELOW 12,000 FEET WITH NO
SIGNIFICANT WEATHER AND/OR NO OBSTRUCTIONS TO VISIBILITY.

NYZ032-033-038>043-046>054-057>066-NYZ062>081-251100-
EAST


CITY           SKY/WX    TMP DP  RH WIND       PRES   REMARKS
ALBANY         CLOUDY    57  42  57 SW20G33   29.47R
GLENS FALLS    LGT RAIN  50  47  89 W17G32    29.43R FOG
POUGHKEEPSIE   LGT RAIN  58  48  69 W22G29    29.51R
NEWBURGH       LGT RAIN  55  50  82 W21G35    29.53R
MONTGOMERY     LGT RAIN  55  44  66 W13G21    29.53R
WHITE PLAINS   LGT RAIN  57  56  96 W8G18     29.52R FOG
ISLIP          CLOUDY    56  54  93 SW15G25   29.54R
NEW YORK CITY  LGT RAIN  60  50  69 W16G29    29.54R
CENTRAL PARK   CLOUDY    59  50  72 W12G25    29.57R
$$

NYZ005>009-017-018-044>046-055-056-251100-
CENTRAL


CITY           SKY/WX    TMP DP  RH WIND       PRES   REMARKS
FULTON         CLOUDY    47  32  56 SW28G36   29.49R
SYRACUSE       CLOUDY    47  33  58 SW22G33   29.50R
ROME           CLOUDY    49  34  56 W17G37    29.51R
ELMIRA         CLOUDY    45  35  68 W16       29.55R
BINGHAMTON     CLOUDY    41  37  86 W10       29.53R
MONTICELLO     CLOUDY    45  43  93 W9G18     29.56F
$$

NYZ026>034-041>043-251100-
NORTH


CITY           SKY/WX    TMP DP  RH WIND       PRES   REMARKS
WATERTOWN      CLOUDY    45  33  63 SW26G43   29.45R
FORT DRUM      NOT AVBL
MASSENA        CLOUDY    43  35  73 SW22G41   29.34R
SARANAC LAKE   LGT RAIN  43  43 100 SW20G29   29.35R
PLATTSBURGH    CLOUDY    51  45  79 SW8G21    29.32R
$$

NYZ001>004-010>016-019>021-251100-
WEST


CITY           SKY/WX    TMP DP  RH WIND       PRES   REMARKS
NIAGARA FALLS  CLOUDY    40  34  79 SW26G44   29.52R WCI  29
BUFFALO        CLOUDY    40  33  76 SW26G48   29.53R WCI  29
DUNKIRK        LGT RAIN  40  33  76 W17G37    29.60R WCI  31
JAMESTOWN      CLOUDY    36  30  80 SW18G26   29.59R WCI  25
WELLSVILLE     LGT RAIN  37  32  82 SW18G25   29.54S WCI  27
ROCHESTER      MOCLDY    43  32  65 W29G45    29.49R
PENN YAN       CLOUDY    44  33  65 SW13G24   29.52R
$$

             KEY
       WCI = WIND CHILL INDEX
       VSB = VISIBILITY
       HX  = HEAT INDEX
$$


USA.gov is the U.S. government's official web portal to all federal, state and local government web resources and services.